Location: �clusier
(49.9361°N, 2.7869°E)
Time: 05:49:06
(UTC+00:00)

Cosmos 2016 Rocket - Pass Details

Date: 24 October 2021
Orbit: 947 x 1000 km, 83.0° (Epoch: 05 December)

Event Time Altitude Azimuth Distance (km) Brightness Sun altitude
Exits shadow 21:08:35 25° 327° (NNW) 1,829 5.8 -42.0°
Drops below altitude 10° 21:11:52 10° 354° (N) 2,693 6.7 -42.4°
Sets 21:14:41 0° 5° (N) 3,638 7.4 -42.7°
